Greybull, WY

6:09 PM MST on December 09, 2019 (GMT -0700)
South Big Horn County

Weather History for KGEY - October, 2019

Change the Weather History Date:

Friday, October 4, 2019

  Actual Average Record
Temperature  
Mean Temperature 48 °F 50 °F  
Max Temperature 64 °F 65 °F 86 °F (2010)
Min Temperature 31 °F 36 °F 23 °F (1999)
Degree Days  
Heating Degree Days 17 14  
Month to date heating degree days 88 55  
Since 1 July heating degree days 263 286  
Cooling Degree Days 0 0  
Month to date cooling degree days 0 0  
Year to date cooling degree days 733 669  
Moisture  
Dew Point 35 °F    
Average Humidity 67    
Maximum Humidity 100    
Minimum Humidity 34    
Precipitation  
Precipitation 0.19 in 0.03 in 0.51 in (2005)
Month to date precipitation 0.21 0.11  
Year to date precipitation 7.53 6.44  
Sea Level Pressure  
Sea Level Pressure 29.91 in    
Wind  
Wind Speed 9 mph (NW)    
Max Wind Speed 37 mph    
Max Gust Speed 48 mph    
Visibility 10 miles    
Events Rain    
T = Trace of Precipitation, MM = Missing Value Source: NWS Daily Summary

Daily Weather History Graph

Daily Weather History Graph

Search for Another Location

Airport or City:

Astronomy

Oct. 04, 2019 Rise Set
Actual Time 7:13 AM MDT 6:47 PM MDT
Civil Twilight 6:44 AM MDT 7:16 PM MDT
Nautical Twilight 6:10 AM MDT 7:50 PM MDT
Astronomical Twilight 5:36 AM MDT 8:24 PM MDT
Moon 2:01 PM MDT (10/4) 11:06 PM MDT (10/4)
Length of Visible Light 12h 32m
Length of Day
11h 34m
Waxing Crescent, 40% of the Moon is Illuminated
Oct 4
Waxing Crescent
Oct 5
First Quarter
Oct 13
Full
Oct 21
Last Quarter
Oct 27
New

Hourly Weather History & Observations

Time (MDT) Temp. Windchill Dew Point Humidity Pressure Visibility Wind Dir Wind Speed Gust Speed Precip Events Conditions
12:53 AM 37.0 °F 31.6 °F 34.0 °F 89% 29.95 in 10.0 mi SE 6.9 mph - N/A   Clear
1:53 AM 36.0 °F 32.1 °F 33.1 °F 89% 29.94 in 10.0 mi SSW 4.6 mph - N/A   Clear
2:53 AM 34.0 °F 28.8 °F 32.0 °F 92% 29.92 in 10.0 mi SE 5.8 mph - N/A   Clear
3:53 AM 34.0 °F - 32.0 °F 92% 29.91 in 10.0 mi Calm Calm - N/A   Clear
4:53 AM 34.0 °F - 30.9 °F 89% 29.90 in 10.0 mi Calm Calm - N/A   Clear
5:53 AM 33.1 °F - 30.0 °F 89% 29.89 in 10.0 mi Calm Calm - N/A   Clear
6:27 AM 30.9 °F - 28.9 °F 92% 29.88 in 10.0 mi Calm Calm - N/A   Mostly Cloudy
6:53 AM 30.9 °F - 30.0 °F 96% 29.91 in 10.0 mi Calm Calm - N/A   Partly Cloudy
7:53 AM 32.0 °F 26.4 °F 30.9 °F 96% 29.91 in 10.0 mi SE 5.8 mph - N/A   Clear
8:53 AM 36.0 °F 33.3 °F 34.0 °F 93% 29.90 in 10.0 mi North 3.5 mph - N/A   Clear
9:53 AM 43.0 °F - 35.1 °F 74% 29.88 in 10.0 mi Calm Calm - N/A   Clear
10:53 AM 46.9 °F - 37.0 °F 68% 29.86 in 10.0 mi Calm Calm - N/A   Clear
11:53 AM 53.1 °F - 37.0 °F 55% 29.83 in 10.0 mi Variable 3.5 mph - N/A   Clear
12:53 PM 55.9 °F - 37.9 °F 51% 29.82 in 10.0 mi NNW 5.8 mph - N/A   Clear
1:53 PM 59.0 °F - 37.0 °F 44% 29.79 in 10.0 mi NNW 8.1 mph - N/A   Clear
2:53 PM 63.0 °F - 35.1 °F 35% 29.76 in 10.0 mi NNW 9.2 mph - N/A   Clear
3:53 PM 62.1 °F - 34.0 °F 35% 29.79 in 10.0 mi NW 21.9 mph 32.2 mph N/A   Clear
4:53 PM 57.0 °F - 35.1 °F 44% 29.85 in 10.0 mi NNW 32.2 mph 48.3 mph N/A   Scattered Clouds
5:53 PM 53.1 °F - 37.9 °F 57% 29.93 in 10.0 mi NW 26.5 mph 36.8 mph 0.00 in   Overcast
6:53 PM 48.9 °F - 39.0 °F 69% 29.96 in 10.0 mi NNW 19.6 mph 32.2 mph 0.00 in Rain Light Rain
7:53 PM 48.0 °F - 39.0 °F 71% 29.97 in 10.0 mi WNW 10.4 mph - 0.00 in   Overcast
8:53 PM 46.9 °F - 39.0 °F 74% 29.96 in 10.0 mi WNW 5.8 mph - N/A   Overcast
9:53 PM 46.9 °F - 39.0 °F 74% 29.97 in 10.0 mi Calm Calm - N/A   Overcast
10:53 PM 43.0 °F 33.5 °F 39.0 °F 86% 30.02 in 10.0 mi WNW 24.2 mph 34.5 mph 0.02 in Rain Light Rain
11:29 PM 43.0 °F 33.8 °F 39.0 °F 86% 30.02 in 10.0 mi WNW 23.0 mph 34.5 mph 0.07 in Rain Rain
11:53 PM 43.0 °F 35.7 °F 39.9 °F 89% 30.04 in 10.0 mi NNW 15.0 mph - 0.14 in Rain Rain